Deer Park, WA
on Tuesday, February 26, 2013

Tuesday
Previous Day Next Day
Daily Summary
 ActualAverageRecord
Temperature
Mean Temperature °F 32°F  
Max Temperature 40°F 43°F 55°F (2005)
Min Temperature 20°F 22°F -11°F (2011)
Degree Days
Heating Degree Days 35 33  
Month to date heating degree days 907 905  
Since 1 July heating degree days 5015 5301  
Cooling Degree Days 0 0  
Month to date cooling degree days 0 0  
Year to date cooling degree days 0 0  
Moisture
Dew Point 24°F   
Average Humidity 77    
Maximum Humidity 100    
Minimum Humidity 54    
Precipitation
Precipitation 0.00 in 0.06 in 0.05 in (2006)
Month to date precipitation 0.79 1.49  
Year to date precipitation 2.29 4.12  
Wind
Wind Speed 4 mph   
Max Wind Speed 13 mph   
Max Gust Speed mph   
Visibility 10 miles   
Events     

Key: T is trace of precipitation, MM is missing value
Source: NWS Daily Summary
Time(PST)TemperatureDew PointHumidity Pressure Visibility Wind DirectionWind SpeedGust SpeedPrecipitationEvents Conditions
12:53 AM 26.1°F 21.9°F 84% 30.17 in - SSE 6.9 mph - N/A   Clear
1:53 AM 27.0°F 21.9°F 81% 30.19 in - SSE 4.6 mph - N/A   Overcast
2:53 AM 25.0°F 21.0°F 85% 30.21 in - South 3.5 mph - N/A   Mostly Cloudy
3:53 AM 25.0°F 21.9°F 88% 30.22 in - SE 5.8 mph - N/A   Overcast
4:53 AM 23.0°F 19.9°F 88% 30.26 in - SSE 5.8 mph - N/A   Overcast
5:53 AM 21.9°F 21.0°F 96% 30.29 in - Calm Calm - N/A   Overcast
6:53 AM 23.0°F 21.0°F 92% 30.30 in - South 4.6 mph - N/A   Mostly Cloudy
7:39 AM 21.2°F 19.4°F 93% 30.25 in 10.0 miles South 4.6 mph - N/A   Mostly Cloudy
7:53 AM 24.1°F 21.9°F 91% 30.32 in 10.0 miles South 5.8 mph - N/A   Overcast
8:53 AM 28.0°F 25.0°F 88% 30.34 in 10.0 miles South 10.4 mph - N/A   Overcast
9:53 AM 28.9°F 25.0°F 85% 30.35 in 10.0 miles South 6.9 mph - N/A   Overcast
10:53 AM 30.9°F 26.1°F 82% 30.36 in 10.0 miles South 6.9 mph - N/A   Overcast
11:53 AM 33.1°F 27.0°F 78% 30.36 in 10.0 miles South 3.5 mph - N/A   Mostly Cloudy
12:24 PM 35.6°F 26.6°F 70% 30.28 in 10.0 miles Calm Calm - N/A   Scattered Clouds
12:53 PM 36.0°F 26.1°F 67% 30.34 in 10.0 miles North - - N/A   Clear
1:53 PM 37.0°F 27.0°F 67% 30.33 in 10.0 miles SW 5.8 mph - N/A   Overcast
2:53 PM 37.0°F 27.0°F 67% 30.33 in 10.0 miles Calm Calm - N/A   Overcast
3:53 PM 39.0°F 25.0°F 57% 30.33 in 10.0 miles Calm Calm - N/A   Overcast
4:53 PM 35.1°F 26.1°F 70% 30.33 in 10.0 miles Calm Calm - N/A   Mostly Cloudy
5:53 PM 34.0°F 25.0°F 70% 30.33 in 10.0 miles Calm Calm - N/A   Partly Cloudy
6:53 PM 30.0°F 25.0°F 82% 30.33 in 10.0 miles Calm Calm - N/A   Mostly Cloudy
7:53 PM 30.0°F 26.1°F 85% 30.32 in 10.0 miles Calm Calm - N/A   Mostly Cloudy
8:53 PM 30.0°F 26.1°F 85% 30.31 in 10.0 miles Calm Calm - N/A   Clear
9:53 PM 28.0°F 25.0°F 88% 30.31 in 9.0 miles Calm Calm - N/A   Clear
10:53 PM 24.1°F 21.9°F 91% 30.30 in 10.0 miles Calm Calm - N/A   Clear
11:53 PM 26.1°F 24.1°F 92% 30.29 in 10.0 miles Calm Calm - N/A   Mostly Cloudy
Moon Phase
Feb. 26 Mar. 04 Mar. 11 Mar. 19 Mar. 27
Sunrise:06:35 AM (PST) Moon Rise:07:02 PM (PST)2/26
Sunset:05:30 PM (PST) Moon Set:06:32 AM (PST)2/26

Copyright © 2014 The Weather Underground, Inc.